Time,TemperatureF,DewpointF,PressureIn,WindDirection,WindDirectionDegrees,WindSpeedMPH,WindSpeedGustMPH,Humidity,HourlyPrecipIn,Conditions,Clouds,dailyrainin,SoftwareType,DateUTC
2013-09-11 00:22:00,70.0,64.0,30.11,SSW,210,6.0,-999.0,82,-99.99,,,-99.99,,2013-09-11 05:22:00,
2013-09-11 00:53:00,70.0,64.0,30.10,SSW,210,6.0,-999.0,82,-99.99,,,-99.99,,2013-09-11 05:53:00,
2013-09-11 01:02:00,70.0,64.0,30.10,SSW,210,6.0,-999.0,82,-99.99,,,-99.99,,2013-09-11 06:02:00,
2013-09-11 01:12:00,70.0,64.0,30.10,SSW,210,6.0,-999.0,82,-99.99,,,-99.99,,2013-09-11 06:12:00,
2013-09-11 01:21:00,70.0,63.0,30.10,SW,220,6.0,-999.0,77,-99.99,,,-99.99,,2013-09-11 06:21:00,
2013-09-11 01:52:00,68.0,63.0,30.10,SSW,200,7.0,-999.0,82,-99.99,,,-99.99,,2013-09-11 06:52:00,
2013-09-11 02:01:00,68.0,63.0,30.10,SSW,200,7.0,-999.0,82,-99.99,,,-99.99,,2013-09-11 07:01:00,
2013-09-11 02:12:00,68.0,63.0,30.10,SSW,200,7.0,-999.0,82,-99.99,,,-99.99,,2013-09-11 07:12:00,
2013-09-11 02:23:00,68.0,63.0,30.10,SW,220,7.0,-999.0,82,-99.99,,,-99.99,,2013-09-11 07:23:00,
2013-09-11 02:52:00,66.0,63.0,30.10,SW,220,6.0,-999.0,88,-99.99,,,-99.99,,2013-09-11 07:52:00,
2013-09-11 03:02:00,66.0,63.0,30.10,SW,220,6.0,-999.0,88,-99.99,,,-99.99,,2013-09-11 08:02:00,
2013-09-11 03:11:00,66.0,63.0,30.10,SW,220,6.0,-999.0,88,-99.99,,,-99.99,,2013-09-11 08:11:00,
2013-09-11 03:22:00,68.0,63.0,30.10,SW,220,6.0,-999.0,82,-99.99,,,-99.99,,2013-09-11 08:22:00,
2013-09-11 03:52:00,66.0,63.0,30.11,SSW,210,6.0,-999.0,88,-99.99,,,-99.99,,2013-09-11 08:52:00,
2013-09-11 04:02:00,66.0,63.0,30.11,SSW,210,6.0,-999.0,88,-99.99,,,-99.99,,2013-09-11 09:02:00,
2013-09-11 04:12:00,66.0,63.0,30.11,SSW,210,6.0,-999.0,88,-99.99,,,-99.99,,2013-09-11 09:12:00,
2013-09-11 04:21:00,66.0,63.0,30.11,SSW,210,6.0,-999.0,88,-99.99,,,-99.99,,2013-09-11 09:21:00,
2013-09-11 04:53:00,66.0,63.0,30.12,WSW,240,5.0,-999.0,88,-99.99,,,-99.99,,2013-09-11 09:53:00,
2013-09-11 05:03:00,66.0,63.0,30.12,WSW,240,5.0,-999.0,88,-99.99,,,-99.99,,2013-09-11 10:03:00,
2013-09-11 05:13:00,66.0,63.0,30.12,WSW,240,5.0,-999.0,88,-99.99,,,-99.99,,2013-09-11 10:13:00,
2013-09-11 05:23:00,66.0,63.0,30.12,SW,230,5.0,-999.0,88,-99.99,,,-99.99,,2013-09-11 10:23:00,
2013-09-11 05:53:00,66.0,63.0,30.12,SSW,210,5.0,-999.0,88,-99.99,,,-99.99,,2013-09-11 10:53:00,
2013-09-11 06:03:00,66.0,63.0,30.12,SSW,210,5.0,-999.0,88,-99.99,,,-99.99,,2013-09-11 11:03:00,
2013-09-11 06:12:00,66.0,63.0,30.12,SSW,210,5.0,-999.0,88,-99.99,,,-99.99,,2013-09-11 11:12:00,
2013-09-11 06:21:00,64.0,63.0,30.13,SW,230,5.0,-999.0,93,-99.99,,,-99.99,,2013-09-11 11:21:00,
2013-09-11 06:52:00,63.0,63.0,30.13,SSW,200,5.0,-999.0,100,-99.99,,,-99.99,,2013-09-11 11:52:00,
2013-09-11 07:01:00,63.0,63.0,30.13,SSW,200,5.0,-999.0,100,-99.99,,,-99.99,,2013-09-11 12:01:00,
2013-09-11 07:11:00,63.0,63.0,30.13,SSW,200,5.0,-999.0,100,-99.99,,,-99.99,,2013-09-11 12:11:00,
2013-09-11 07:21:00,63.0,63.0,30.14,North,0,0.0,-999.0,100,-99.99,,,-99.99,,2013-09-11 12:21:00,
2013-09-11 07:52:00,64.0,64.0,30.14,North,0,0.0,-999.0,100,-99.99,,,-99.99,,2013-09-11 12:52:00,
2013-09-11 08:02:00,64.0,64.0,30.14,North,0,0.0,-999.0,100,-99.99,,,-99.99,,2013-09-11 13:02:00,
2013-09-11 08:12:00,64.0,64.0,30.14,North,0,0.0,-999.0,100,-99.99,,,-99.99,,2013-09-11 13:12:00,
2013-09-11 08:22:00,68.0,68.0,30.15,SSW,200,3.0,-999.0,100,-99.99,,,-99.99,,2013-09-11 13:22:00,
2013-09-11 08:52:00,73.0,66.0,30.15,SW,220,3.0,-999.0,78,-99.99,,,-99.99,,2013-09-11 13:52:00,
2013-09-11 09:02:00,73.0,66.0,30.15,SW,220,3.0,-999.0,78,-99.99,,,-99.99,,2013-09-11 14:02:00,
2013-09-11 09:11:00,73.0,66.0,30.15,SW,220,3.0,-999.0,78,-99.99,,,-99.99,,2013-09-11 14:11:00,
2013-09-11 09:21:00,75.0,66.0,30.15,WSW,240,3.0,-999.0,73,-99.99,,,-99.99,,2013-09-11 14:21:00,
2013-09-11 09:52:00,79.0,68.0,30.15,West,260,5.0,-999.0,69,-99.99,,,-99.99,,2013-09-11 14:52:00,
2013-09-11 10:02:00,79.0,68.0,30.15,West,260,5.0,-999.0,69,-99.99,,,-99.99,,2013-09-11 15:02:00,
2013-09-11 10:11:00,79.0,68.0,30.15,West,260,5.0,-999.0,69,-99.99,,,-99.99,,2013-09-11 15:11:00,
2013-09-11 10:22:00,82.0,66.0,30.17,WNW,300,8.0,-999.0,58,-99.99,,,-99.99,,2013-09-11 15:22:00,
2013-09-11 10:54:00,84.0,66.0,30.16,West,270,8.0,-999.0,54,-99.99,,,-99.99,,2013-09-11 15:54:00,
2013-09-11 11:03:00,84.0,66.0,30.16,West,270,8.0,-999.0,54,-99.99,,,-99.99,,2013-09-11 16:03:00,
2013-09-11 11:13:00,84.0,66.0,30.16,West,270,8.0,-999.0,54,-99.99,,,-99.99,,2013-09-11 16:13:00,
2013-09-11 11:23:00,86.0,66.0,30.15,WSW,240,5.0,-999.0,51,-99.99,,,-99.99,,2013-09-11 16:23:00,
2013-09-11 11:53:00,86.0,66.0,30.15,WSW,250,8.0,-999.0,51,-99.99,,,-99.99,,2013-09-11 16:53:00,
2013-09-11 12:03:00,86.0,66.0,30.15,WSW,250,8.0,-999.0,51,-99.99,,,-99.99,,2013-09-11 17:03:00,
2013-09-11 12:12:00,86.0,66.0,30.15,WSW,250,8.0,-999.0,51,-99.99,,,-99.99,,2013-09-11 17:12:00,
2013-09-11 12:23:00,88.0,64.0,30.14,WSW,240,10.0,-999.0,45,-99.99,,,-99.99,,2013-09-11 17:23:00,
2013-09-11 12:52:00,88.0,66.0,30.14,WSW,250,7.0,17.0,48,-99.99,,,-99.99,,2013-09-11 17:52:00,
2013-09-11 13:02:00,88.0,66.0,30.14,WSW,250,7.0,17.0,48,-99.99,,,-99.99,,2013-09-11 18:02:00,
2013-09-11 13:12:00,88.0,66.0,30.14,WSW,250,7.0,17.0,48,-99.99,,,-99.99,,2013-09-11 18:12:00,
2013-09-11 13:21:00,90.0,66.0,30.13,WSW,250,12.0,18.0,46,-99.99,,,-99.99,,2013-09-11 18:21:00,
2013-09-11 13:52:00,90.0,66.0,30.12,WSW,240,15.0,18.0,46,-99.99,,,-99.99,,2013-09-11 18:52:00,
2013-09-11 14:01:00,90.0,66.0,30.12,WSW,240,15.0,18.0,46,-99.99,,,-99.99,,2013-09-11 19:01:00,
2013-09-11 14:11:00,90.0,66.0,30.12,WSW,240,15.0,18.0,46,-99.99,,,-99.99,,2013-09-11 19:11:00,
2013-09-11 14:21:00,90.0,64.0,30.11,WSW,250,13.0,22.0,43,-99.99,,,-99.99,,2013-09-11 19:21:00,
2013-09-11 14:53:00,91.0,64.0,30.10,SW,230,10.0,-999.0,40,-99.99,,,-99.99,,2013-09-11 19:53:00,
2013-09-11 15:02:00,91.0,64.0,30.10,SW,230,10.0,-999.0,40,-99.99,,,-99.99,,2013-09-11 20:02:00,
2013-09-11 15:12:00,91.0,64.0,30.10,SW,230,10.0,-999.0,40,-99.99,,,-99.99,,2013-09-11 20:12:00,
2013-09-11 15:21:00,91.0,64.0,30.09,West,280,10.0,-999.0,40,-99.99,,,-99.99,,2013-09-11 20:21:00,
2013-09-11 15:52:00,90.0,63.0,30.09,West,260,9.0,17.0,40,-99.99,,,-99.99,,2013-09-11 20:52:00,
2013-09-11 16:02:00,90.0,63.0,30.09,West,260,9.0,17.0,40,-99.99,,,-99.99,,2013-09-11 21:02:00,
2013-09-11 16:12:00,90.0,63.0,30.09,West,260,9.0,17.0,40,-99.99,,,-99.99,,2013-09-11 21:12:00,
2013-09-11 16:21:00,90.0,64.0,30.08,WSW,250,8.0,-999.0,43,-99.99,,,-99.99,,2013-09-11 21:21:00,
2013-09-11 16:54:00,90.0,64.0,30.07,WSW,250,9.0,16.0,43,-99.99,,,-99.99,,2013-09-11 21:54:00,
2013-09-11 17:04:00,90.0,64.0,30.07,WSW,250,9.0,16.0,43,-99.99,,,-99.99,,2013-09-11 22:04:00,
2013-09-11 17:13:00,90.0,64.0,30.07,WSW,250,9.0,16.0,43,-99.99,,,-99.99,,2013-09-11 22:13:00,
2013-09-11 17:24:00,90.0,64.0,30.06,WSW,250,10.0,16.0,43,-99.99,,,-99.99,,2013-09-11 22:24:00,
2013-09-11 17:54:00,90.0,64.0,30.06,WSW,240,6.0,-999.0,43,-99.99,,,-99.99,,2013-09-11 22:54:00,
2013-09-11 18:03:00,90.0,64.0,30.06,WSW,240,6.0,-999.0,43,-99.99,,,-99.99,,2013-09-11 23:03:00,
2013-09-11 18:12:00,90.0,64.0,30.06,WSW,240,6.0,-999.0,43,-99.99,,,-99.99,,2013-09-11 23:12:00,
2013-09-11 18:22:00,88.0,66.0,30.06,West,260,7.0,-999.0,48,-99.99,,,-99.99,,2013-09-11 23:22:00,
2013-09-11 19:21:00,84.0,64.0,30.05,WSW,240,3.0,-999.0,51,-99.99,,,-99.99,,2013-09-12 00:21:00,
2013-09-11 22:11:00,73.0,68.0,30.08,SW,220,5.0,-999.0,83,-99.99,,,-99.99,,2013-09-12 03:11:00,
2013-09-11 22:22:00,75.0,66.0,30.08,North,0,0.0,-999.0,73,-99.99,,,-99.99,,2013-09-12 03:22:00,
2013-09-11 22:55:00,73.0,66.0,30.08,WSW,250,5.0,-999.0,78,-99.99,,,-99.99,,2013-09-12 03:55:00,
2013-09-11 23:05:00,73.0,66.0,30.08,WSW,250,5.0,-999.0,78,-99.99,,,-99.99,,2013-09-12 04:05:00,
2013-09-11 23:14:00,73.0,66.0,30.08,WSW,250,5.0,-999.0,78,-99.99,,,-99.99,,2013-09-12 04:14:00,
2013-09-11 23:24:00,72.0,68.0,30.08,WSW,240,3.0,-999.0,88,-99.99,,,-99.99,,2013-09-12 04:24:00,
2013-09-11 23:54:00,72.0,68.0,30.07,WSW,250,5.0,-999.0,88,-99.99,,,-99.99,,2013-09-12 04:54:00,